THAICOM 4

Last updated on Tue Dec 16 2025 00:02:48 GMT+0000 (Coordinated Universal Time)

1 28786U 05028A 25349.29617247 -.00000341 00000+0 00000+0 0 9994 2 28786 0.0864 86.6792 0002001 178.6786 44.9471 1.00270240 50409
UTC large
Height (km)
Speed (km/s)
/
Latitude / Longitude
Inclination (degrees)
Orbital Period (minutes)
Azimuth
Elevation
Range (km)
Doppler Factor

Next 0 passes for location: London (51.5072 / 0.1276)

Sorry there are no passes over London.